sat.trackr.live / text

‹ back to catalog

KUIPER-00253

NORAD 68584 · 2026-072M

PAYLOAD ACTIVE UNKNOWN

§ Identity

Operator
Country
US
Launch date
2026-04-04
Launch site
AFETR
Launch vehicle
Mass (kg)
RCS (m²)

External: N2YO · Heavens-Above · Gunter

§ Orbital elements

Epoch: 2026-05-25T04:00:03.998880Z

Period
94.63 min
Inclination
51.8781°
Eccentricity
0.0006958
Mean motion
15.21794820 rev/d
Perigee alt
495.6 km
Apogee alt
505.2 km
Semi-major
6,878.6 km
B*
-9.6039e-3
RAAN
288.5830°
Arg perigee
303.8684°
Mean anomaly
44.5779°
Rev number
437

§ Raw data

KUIPER-002531 68584U 26072M   26145.16671295 -.00215089  00000+0 -96039-2 0  99982 68584  51.8781 288.5830 0006958 303.8684  44.5779 15.21794820  4376

JSON: /api/v1/satellites/68584 · /tle

For live sub-satellite position, see the globe view (requires WebGL).

§ Visibility from observer

Set your observer location to see the next 7 days of passes ≥ 10°. The values pass through the URL so the page stays shareable.

No JS? Fill the form by hand. The geolocation button needs JavaScript.